Location: Copeville
(33.0796°N, 96.4155°W)
Time: 19:45:23
(UTC+00:00)

Cosmos 1328 Rocket - Pass Details

Date: 11 July 2022
Orbit: 600 x 627 km, 82.5° (Epoch: 17 August)

Event Time Altitude Azimuth Distance (km) Brightness Sun altitude
Rises 08:52:22 0° 333° (NNW) 2,883 7.3 -25.4°
Reaches altitude 10° 08:55:14 10° 313° (NW) 1,967 6.2 -25.0°
Enters shadow 08:55:45 12° 308° (NW) 1,841 6.0 -25.0°
